Flag for Russia Weather past 2 weeks in Surgut, Russia

Now
28 °F

Clear.


Feels Like: 28 °F
Forecast: 23 / 38 °F
Wind: 1 mph from West

Location: Surgut Airport

Current Time: Apr 1, 2015 at 8:33:19 PM

Latest Report: Apr 1, 2015 at 8:00 PM


Visibility: 4 mi

Pressure: 30.30 "Hg

Humidity: 59%

Dew point: 16 °F

Location of SurgutLocation

Historic Weather in Surgut — Graph

°F

Surgut temperature yesterday

Maximum temperature yesterday: 39 °F (at 1:30 PM)
Minimum temperature yesterday: 14 °F (at 6:00 AM)
Average temperature yesterday: 28 °F

Past Weeks' High & Low Weather Summary

 TemperatureHumidityPressure
High43 °F (Apr 1, 1:30 PM)100% (Mar 22, 12:30 AM)30.66 "Hg (Mar 22, 12:30 AM)
Low-11 °F (Mar 28, 5:00 AM)33% (Apr 1, 6:30 PM)29.18 "Hg (Mar 23, 7:00 AM)
Average21 °F69%29.92 "Hg
* Reported Mar 17 7:00 PM — Apr 1 7:30 PM, Surgut, Weather by CustomWeather, © 2015

Note: Actual official high and low records may vary slightly from our data, if they occured in-between our weather recording intervals... More about our weather records

Advertising

Surgut weather history for previous 24 hours

 ConditionsComfort  
Time TempWeatherWind HumidityBarometerVisibility
7:30 PM
Wed, Apr 1
30 °FSunny.3 mph59%30.27 "Hg4 mi
7:00 PM34 °FSunny.3 mph51%30.27 "Hg4 mi
6:30 PM41 °FSunny.6 mph33%30.27 "Hg4 mi
6:00 PM39 °FSunny.6 mph42%30.27 "Hg4 mi
5:30 PM39 °FSunny.8 mph48%30.27 "Hg4 mi
5:00 PM41 °FSunny.10 mph42%30.27 "Hg4 mi
4:30 PM41 °FSunny.13 mph42%30.27 "Hg4 mi
4:00 PM41 °FSunny.8 mph45%30.30 "Hg4 mi
3:30 PM43 °FSunny.8 mph36%30.30 "Hg4 mi
3:00 PM43 °FSunny.8 mph39%30.30 "Hg4 mi
2:30 PM43 °FScattered clouds.8 mph39%30.30 "Hg4 mi
2:00 PM43 °FScattered clouds.8 mph39%30.30 "Hg4 mi
1:30 PM43 °FScattered clouds.8 mph39%30.30 "Hg4 mi
1:00 PM41 °FScattered clouds.6 mph42%30.30 "Hg4 mi
12:30 PM41 °FScattered clouds.6 mph39%30.30 "Hg4 mi
12:00 PM41 °FSunny.8 mph39%30.30 "Hg4 mi
11:30 AM39 °FSunny.8 mph42%30.30 "Hg4 mi
11:00 AM39 °FSunny.8 mph42%30.30 "Hg4 mi
10:30 AM37 °FSunny.8 mph45%30.30 "Hg4 mi
10:00 AM36 °FSunny.3 mph52%30.30 "Hg4 mi
9:30 AM34 °FSunny.3 mph51%30.30 "Hg4 mi
9:00 AM30 °FScattered clouds.3 mph59%30.30 "Hg4 mi
8:30 AM30 °FScattered clouds.3 mph55%30.30 "Hg4 mi
8:00 AM28 °FScattered clouds.1 mph59%30.30 "Hg4 mi
7:30 AM21 °FScattered clouds.3 mph74%30.30 "Hg4 mi
7:00 AM21 °FScattered clouds.3 mph74%30.30 "Hg4 mi
6:30 AM19 °FClear.3 mph73%30.30 "Hg4 mi
6:00 AM19 °FClear.3 mph79%30.30 "Hg4 mi
5:30 AM19 °FClear.3 mph73%30.30 "Hg4 mi
5:00 AM21 °FClear.3 mph68%30.30 "Hg4 mi
4:30 AM19 °FClear.3 mph73%30.30 "Hg4 mi
4:00 AM21 °FClear.3 mph68%30.30 "Hg4 mi
3:30 AM23 °FClear.3 mph63%30.30 "Hg4 mi
3:00 AM23 °FClear.3 mph63%30.30 "Hg4 mi
2:30 AM21 °FClear.3 mph68%30.30 "Hg4 mi
2:00 AM23 °FClear.3 mph63%30.30 "Hg4 mi
1:30 AM23 °FClear.3 mph63%30.30 "Hg4 mi
1:00 AM21 °FClear.3 mph68%30.30 "Hg4 mi
12:30 AM21 °FClear.3 mph74%30.30 "Hg4 mi
12:00 AM21 °FClear.No wind80%30.30 "Hg4 mi
11:30 PM
Tue, Mar 31
21 °FClear.No wind80%30.30 "Hg4 mi
11:00 PM23 °FClear.No wind74%30.30 "Hg4 mi
10:30 PM21 °FClear.No wind74%30.30 "Hg4 mi
10:00 PM23 °FClear.No wind74%30.30 "Hg4 mi
9:30 PM25 °FClear.No wind69%30.30 "Hg4 mi
9:00 PM23 °FClear.No wind68%30.30 "Hg4 mi
8:30 PM25 °FPassing clouds.No wind63%30.30 "Hg4 mi
8:00 PM27 °FPassing clouds.1 mph64%30.30 "Hg4 mi
Weather by CustomWeather, © 2015

See weather overviewHow to use our weather pages